DateTimeUTC,F1_A11,F1_S11,BsB_S11,BsG_S11,BsR_S11,BbsB_S11,BbsG_S11,BbsR_S11,BaB_A11,BaG_A11,BaR_A11,Tu_S11,T_S11,Uu_S11,U_S11,P_S11,T1_A11
2021-08-08T17:00:00Z,00000200,20000000,,,,,,,-000.27,-000.15,0000.09,19.9,26.3,06.8,04.6,0667.8,31.1
2021-08-08T17:01:00Z,00000200,20000000,,,,,,,0000.31,0000.40,0000.10,19.9,26.3,06.8,04.6,0667.8,31.1
2021-08-08T17:02:00Z,00000200,20000000,,,,,,,-000.18,-000.36,-000.54,19.9,26.3,06.8,04.6,0667.8,31.1
2021-08-08T17:03:00Z,00000200,60000000,,,,,,,0000.85,0000.37,0000.78,19.9,26.3,06.8,04.6,0667.8,31.1
2021-08-08T17:04:00Z,00000200,40000000,0003.52,0002.38,0001.40,0000.83,0000.37,0000.10,0000.52,0000.51,0000.05,20.0,26.2,06.8,04.7,0668.7,31.1
2021-08-08T17:05:00Z,00000200,00000000,0003.22,0002.42,0001.34,0000.21,0000.45,0000.15,0000.27,0000.50,0000.92,20.1,26.1,06.9,04.7,0668.8,31.1
2021-08-08T17:06:00Z,00000200,00000000,0002.85,0002.46,0001.32,0000.72,0000.39,-000.03,0000.87,0000.63,0000.24,20.0,26.1,06.9,04.8,0668.8,31.1
2021-08-08T17:07:00Z,00000200,00000000,0003.06,0002.12,0001.31,0001.01,0000.18,-000.10,0000.58,0000.64,0000.48,20.1,26.1,06.9,04.8,0668.8,31.1
2021-08-08T17:08:00Z,00000200,00000000,0002.18,0002.40,0001.22,0000.33,0000.21,0000.09,0000.53,0000.53,0000.60,20.1,26.1,06.8,04.7,0668.8,31.1
2021-08-08T17:09:00Z,00000200,00000000,0003.55,0002.10,0001.34,0000.69,0000.34,0000.25,0000.67,0000.27,0000.13,20.1,26.1,06.9,04.8,0668.9,31.1
2021-08-08T17:10:00Z,00000200,00000000,0002.78,0002.29,0001.07,0001.00,0000.30,0000.04,0000.45,0001.06,0000.56,20.1,26.1,06.9,04.8,0668.8,31.1
2021-08-08T17:11:00Z,00000200,00000000,0003.14,0002.15,0001.26,0000.21,0000.19,0000.24,0000.60,0000.31,0000.67,20.1,26.1,06.9,04.8,0668.9,31.1
2021-08-08T17:12:00Z,00000200,00000000,0002.99,0002.39,0001.43,0000.41,0000.46,0000.37,0000.73,0000.39,0000.25,20.1,26.1,06.8,04.7,0668.8,31.1
2021-08-08T17:13:00Z,00000200,00000000,0003.82,0002.61,0001.44,0000.24,0000.48,0000.42,0000.30,0000.76,0000.46,20.1,26.1,06.9,04.7,0668.9,31.1
2021-08-08T17:14:00Z,00000200,00000000,0003.84,0002.28,0001.60,0000.74,0000.47,0000.36,0000.59,0000.76,0000.42,20.1,26.1,06.7,04.7,0668.9,31.1
2021-08-08T17:15:00Z,00000200,00000000,0003.30,0002.28,0001.42,0000.55,0000.50,0000.77,0000.56,0000.27,0000.56,20.1,26.1,06.8,04.7,0668.9,31.1
2021-08-08T17:16:00Z,00000200,00000000,0003.94,0002.25,0001.30,0000.63,0000.29,0000.45,0000.44,0000.63,0000.44,20.1,26.1,06.8,04.7,0668.9,31.1
2021-08-08T17:17:00Z,00000200,00000000,0003.58,0002.36,0001.37,0001.10,0000.37,0000.39,0000.91,0000.57,0000.71,20.1,26.1,06.8,04.7,0668.9,31.1
2021-08-08T17:18:00Z,00000200,00000000,0002.66,0002.38,0001.39,0000.61,0000.46,0000.56,0000.37,0000.43,0000.29,20.1,26.1,06.7,04.7,0668.8,31.1
2021-08-08T17:19:00Z,00000200,00000000,0003.05,0002.07,0001.25,0000.70,0000.11,0000.59,0000.87,0000.93,0000.51,20.1,26.1,06.8,04.7,0668.8,31.1
2021-08-08T17:20:00Z,00000200,00000000,0003.91,0002.27,0001.49,0000.72,0000.27,-000.00,0001.04,0000.40,0000.94,20.1,26.1,06.9,04.8,0668.8,31.1
2021-08-08T17:21:00Z,00000200,00000000,0003.63,0002.35,0001.27,0000.69,0000.57,0000.17,0000.31,0000.77,0000.14,20.0,26.2,06.8,04.7,0668.9,31.1
2021-08-08T17:22:00Z,00000200,00000000,0003.14,0002.04,0001.24,0000.17,0000.54,0000.23,0001.14,0000.52,0000.61,20.0,26.1,06.9,04.8,0668.9,31.1
2021-08-08T17:23:00Z,00000200,00000000,0003.55,0002.26,0001.04,0000.61,0000.47,-000.08,0000.26,0000.84,0000.89,20.1,26.1,06.9,04.8,0668.8,31.1
2021-08-08T17:24:00Z,00000200,00000000,0003.80,0002.27,0001.14,0000.41,0000.25,0000.25,0001.09,0000.90,0000.60,20.1,26.1,06.9,04.8,0668.8,31.1
2021-08-08T17:25:00Z,00000200,00000000,0002.83,0002.15,0001.44,0001.00,0000.25,0000.30,0000.68,0000.68,0000.54,20.1,26.1,07.1,04.9,0668.8,31.1
2021-08-08T17:26:00Z,00000200,00000000,0003.85,0002.40,0001.34,0000.72,0000.48,0000.15,0000.98,0000.54,0000.64,20.1,26.1,07.1,04.9,0668.9,31.1
2021-08-08T17:27:00Z,00000200,00000000,0003.80,0002.13,0001.46,0000.11,0000.11,0000.27,-000.01,0000.60,0000.26,20.0,26.1,07.1,04.9,0668.8,31.1
2021-08-08T17:28:00Z,00000200,00000000,0003.22,0002.25,0001.27,0000.94,0000.31,0000.36,0000.95,0000.66,0000.89,20.0,26.1,07.2,05.0,0668.8,31.1
2021-08-08T17:29:00Z,00000200,00000000,0003.83,0002.05,0000.97,0000.60,0000.40,0000.14,0000.72,0000.51,0000.28,20.1,26.1,07.2,05.0,0668.8,31.1
2021-08-08T17:30:00Z,00000200,00000000,0003.46,0001.76,0001.55,0000.39,0000.34,0000.24,0000.52,0000.62,0000.29,20.0,26.1,07.1,04.9,0668.8,31.1
2021-08-08T17:31:00Z,00000200,00000000,0003.27,0002.36,0001.28,0000.29,0000.38,-000.11,0000.60,0000.37,0000.60,20.0,26.1,07.2,05.0,0668.8,31.1
2021-08-08T17:32:00Z,00000200,00000000,0003.47,0002.25,0001.37,0000.46,0000.21,0000.04,0000.64,0001.15,0000.75,20.0,26.1,07.2,05.0,0668.8,31.1
2021-08-08T17:33:00Z,00000200,00000000,0003.43,0002.24,0001.53,0000.70,0000.52,0000.02,0000.81,0000.14,0000.52,20.0,26.1,07.2,05.0,0668.8,31.1
2021-08-08T17:34:00Z,00000200,00000000,0002.80,0002.21,0001.19,0000.73,0000.14,0000.48,0000.78,0000.64,0000.39,20.0,26.1,07.3,05.0,0668.8,31.1
2021-08-08T17:35:00Z,00000200,00000000,0002.76,0002.37,0001.13,-000.10,0000.35,0000.21,0000.37,0000.75,0000.29,20.0,26.1,07.3,05.1,0668.8,31.1
2021-08-08T17:36:00Z,00000200,00000000,0003.96,0002.17,0001.42,0000.61,0000.43,0000.18,0000.45,0000.60,0000.63,20.0,26.1,07.3,05.1,0668.8,31.1
2021-08-08T17:37:00Z,00000200,00000000,0002.74,0002.07,0001.07,0001.11,0000.48,0000.12,0000.69,0000.79,0000.63,20.0,26.1,07.4,05.1,0668.8,31.1
2021-08-08T17:38:00Z,00000200,00000000,0002.95,0002.29,0001.35,0000.45,0000.34,0000.41,0000.72,0000.17,0000.40,20.0,26.1,07.4,05.1,0668.8,31.1
2021-08-08T17:39:00Z,00000200,00000000,0002.70,0002.02,0000.92,0000.65,0000.39,0000.02,0000.31,0000.59,0000.25,20.0,26.1,07.3,05.1,0668.8,31.1
2021-08-08T17:40:00Z,00000200,00000000,0003.02,0001.77,0001.46,0000.73,-000.02,0000.17,0000.92,0000.69,0000.84,20.0,26.1,07.3,05.1,0668.8,31.1
2021-08-08T17:41:00Z,00000200,00000000,0002.97,0002.02,0001.00,0000.71,0000.44,0000.35,0000.42,0000.55,0000.32,20.0,26.1,07.4,05.1,0668.8,31.1
2021-08-08T17:42:00Z,00000200,00000000,0003.25,0002.23,0001.06,0000.69,0000.17,0000.27,0000.92,0000.78,0000.49,20.0,26.1,07.3,05.1,0668.8,31.1
2021-08-08T17:43:00Z,00000200,00000000,0002.95,0001.73,0001.00,-000.03,0000.13,0000.18,0000.41,0000.37,0000.13,20.0,26.1,07.4,05.1,0668.8,31.1
2021-08-08T17:44:00Z,00000200,00000000,0003.45,0001.85,0001.24,0000.26,0000.27,0000.38,0000.36,0000.22,0000.82,20.0,26.1,07.4,05.1,0668.8,31.1
2021-08-08T17:45:00Z,00000200,00000000,0002.64,0002.05,0001.25,0000.34,0000.46,0000.31,0000.80,0000.74,0000.42,20.0,26.1,07.4,05.1,0668.8,31.1
2021-08-08T17:46:00Z,00000200,00000000,0002.29,0002.09,0001.25,0000.49,0000.33,0000.36,0000.88,0000.59,0000.46,20.0,26.1,07.5,05.2,0668.9,31.1
2021-08-08T17:47:00Z,00000200,00000000,0002.66,0001.69,0001.20,0000.42,0000.30,0000.25,0000.25,0000.61,0000.57,20.0,26.1,07.5,05.2,0668.8,31.1
2021-08-08T17:48:00Z,00000200,00000000,0003.36,0002.08,0001.12,0000.80,0000.47,0000.04,0000.58,0000.43,0000.43,20.0,26.0,07.5,05.2,0668.8,31.1
2021-08-08T17:49:00Z,00000200,00000000,0002.92,0002.14,0001.06,0000.67,0000.46,-000.04,0000.83,0000.76,0000.49,20.0,26.1,07.5,05.2,0668.8,31.1
2021-08-08T17:50:00Z,00000200,00000000,0002.80,0002.14,0000.84,0000.29,0000.47,0000.15,0000.73,0000.62,0000.21,20.0,26.1,07.4,05.1,0668.8,31.1
2021-08-08T17:51:00Z,00000200,00000000,0003.12,0002.32,0000.94,0000.70,0000.23,0000.02,0000.43,0000.67,0000.64,20.0,26.1,07.4,05.1,0668.8,31.1
2021-08-08T17:52:00Z,00000200,00000000,0003.36,0001.90,0001.00,0000.54,0000.26,0000.27,0000.48,0000.75,0000.39,20.0,26.1,07.4,05.1,0668.8,31.1
2021-08-08T17:53:00Z,00000200,00000000,0003.11,0001.95,0000.94,0000.63,0000.38,0000.00,0000.77,0000.20,0000.51,20.0,26.1,07.4,05.1,0668.8,31.1
2021-08-08T17:54:00Z,00000200,00000000,0002.78,0002.14,0001.18,0000.28,0000.49,0000.36,0000.59,0000.65,0000.73,20.0,26.1,07.5,05.2,0668.9,31.1
2021-08-08T17:55:00Z,00000200,00000000,0003.55,0002.30,0001.19,0000.42,0000.34,0000.41,0000.58,0000.63,0000.46,20.0,26.1,07.5,05.2,0668.8,31.1
2021-08-08T17:56:00Z,00000200,00000000,0003.86,0001.76,0001.25,0000.63,0000.51,0000.10,0000.70,0000.19,0000.75,20.0,26.1,07.4,05.1,0668.9,31.1
2021-08-08T17:57:00Z,00000200,40000000,,,,,,,-000.24,0000.31,-000.58,20.0,26.1,06.9,04.8,0668.9,31.1
2021-08-08T17:58:00Z,00000200,60000000,,,,,,,0000.15,0000.20,0000.13,19.8,26.2,07.4,05.0,0667.9,31.1
2021-08-08T17:59:00Z,00000200,20000000,,,,,,,-000.36,-000.08,0000.29,19.7,26.3,07.5,05.0,0667.9,31.1
